User: anonymous   Login
Location: Oshawa
(43.9000°N, 78.8670°W)
Time: 08:47:09
(UTC-04:00)
Language:

Iridium 46 - Orbit

View from above orbital plane
View from above orbital plane
View from above satellite
View from above satellite

Ground track
Ground track

The orbit data is extracted from the following two-line orbital elements,

1 24905U 97043C   14303.44119620  .00000379  00000-0  12842-3 0   597
2 24905 086.3934 297.4945 0002162 105.7196 254.4239 14.34222133900121
Epoch (UTC): 30 October 2014 10:35:19
Eccentricity: 0.0002162
inclination: 86.3934°
perigee height: 776 km
apogee height: 779 km
right ascension of ascending node: 297.4945°
argument of perigee: 105.7196°
revolutions per day: 14.34222133
mean anomaly at epoch: 254.4239°
orbit number at epoch: 90012

The dashed part of the orbit path shows where the satellite is in the earth's shadow,  

DLR